Bartlesville, OK

7:59 PM CDT on September 19, 2019 (GMT -0500)
Bartlesville Municipal

Weather History for KBVO - August, 2019

Change the Weather History Date:

Sunday, August 25, 2019

  Actual Average Record
Temperature  
Mean Temperature 74 °F -  
Max Temperature 81 °F 94 °F 105 °F (2006)
Min Temperature 66 °F 66 °F 50 °F (2015)
Cooling Degree Days 8    
Growing Degree Days 24 (Base 50)    
Moisture  
Dew Point 69 °F    
Average Humidity 90    
Maximum Humidity 100    
Minimum Humidity 69    
Precipitation  
Precipitation 0.95 in - - ()
Sea Level Pressure  
Sea Level Pressure 29.88 in    
Wind  
Wind Speed 4 mph ()    
Max Wind Speed 10 mph    
Max Gust Speed -    
Visibility 8.4 miles    
Events Fog , Rain , Thunderstorm    
Averages and records for this station are not official NWS values.
T = Trace of Precipitation, MM = Missing Value Source: Averaged Metar Reports

Daily Weather History Graph

Daily Weather History Graph

Search for Another Location

Airport or City:

Astronomy

Aug. 25, 2019 Rise Set
Actual Time 6:49 AM CDT 8:02 PM CDT
Civil Twilight 6:22 AM CDT 8:29 PM CDT
Nautical Twilight 5:50 AM CDT 9:01 PM CDT
Astronomical Twilight 5:16 AM CDT 9:34 PM CDT
Moon 1:29 AM CDT (8/25) 4:19 PM CDT (8/25)
Length of Visible Light 14h 06m
Length of Day
13h 13m
Waning Crescent, 29% of the Moon is Illuminated
Aug 25
Waning Crescent
Aug 30
New
Sep 5
First Quarter
Sep 13
Full
Sep 21
Last Quarter

Hourly Weather History & Observations

Time (CDT) Temp. Heat Index Dew Point Humidity Pressure Visibility Wind Dir Wind Speed Gust Speed Precip Events Conditions
12:15 AM 73.9 °F - 72.0 °F 93% 29.96 in 10.0 mi East 4.6 mph - N/A   Mostly Cloudy
12:30 AM 73.9 °F - 72.0 °F 93% 29.96 in 10.0 mi Calm Calm - N/A   Overcast
12:53 AM 73.9 °F - 72.0 °F 93% 29.91 in 10.0 mi East 6.9 mph - N/A   Overcast
1:02 AM 73.9 °F - 72.0 °F 93% 29.95 in 10.0 mi East 5.8 mph - N/A   Overcast
1:53 AM 73.9 °F - 72.0 °F 93% 29.90 in 10.0 mi SE 8.1 mph - N/A   Overcast
2:53 AM 73.9 °F - 72.0 °F 93% 29.90 in 10.0 mi ESE 5.8 mph - N/A   Overcast
3:09 AM 73.9 °F - 72.0 °F 93% 29.92 in 10.0 mi SE 6.9 mph - N/A   Overcast
3:41 AM 75.0 °F - 72.0 °F 90% 29.92 in 10.0 mi SE 5.8 mph - N/A   Overcast
3:53 AM 75.0 °F - 72.0 °F 90% 29.88 in 10.0 mi SE 9.2 mph - N/A   Overcast
4:00 AM 75.0 °F - 72.0 °F 90% 29.90 in 10.0 mi SSE 8.1 mph - N/A   Overcast
4:34 AM 75.0 °F - 72.0 °F 90% 29.89 in 10.0 mi SSE 10.4 mph - N/A   Overcast
4:53 AM 75.0 °F - 72.0 °F 90% 29.85 in 10.0 mi SSE 8.1 mph - N/A   Overcast
5:53 AM 75.0 °F - 73.0 °F 94% 29.88 in 10.0 mi Variable 5.8 mph - N/A   Overcast
6:44 AM 68.0 °F - 64.9 °F 90% 29.92 in 5.0 mi North 9.2 mph - 0.00 in Rain Light Rain
6:53 AM 66.9 °F - 64.9 °F 93% 29.89 in 5.0 mi Variable 5.8 mph - 0.00 in Rain Light Rain
7:17 AM 66.9 °F - 64.9 °F 93% 29.93 in 10.0 mi NNE 6.9 mph - 0.00 in Rain Light Rain
7:42 AM 66.9 °F - 66.0 °F 97% 29.95 in 2.5 mi Calm Calm - 0.00 in Rain Light Rain
7:46 AM 66.9 °F - 66.0 °F 97% 29.95 in 0.8 mi Calm Calm - 0.01 in Rain Heavy Rain
7:53 AM 66.9 °F - 64.9 °F 93% 29.94 in 0.2 mi Variable 4.6 mph - 0.02 in Fog , Rain Heavy Rain
8:03 AM 66.0 °F - 64.9 °F 96% 29.96 in 0.5 mi SW 4.6 mph - 0.04 in Fog , Rain , Thunderstorm Heavy Thunderstorms and Rain
8:18 AM 66.0 °F - 64.9 °F 96% 29.93 in 1.0 mi NE 4.6 mph - 0.11 in Rain , Thunderstorm Heavy Thunderstorms and Rain
8:37 AM 66.0 °F - 64.9 °F 96% 29.94 in 3.0 mi Calm Calm - 0.23 in Rain , Thunderstorm Rain
8:53 AM 66.9 °F - 64.9 °F 93% 29.91 in 6.0 mi Calm Calm - 0.34 in Rain , Thunderstorm Light Rain
9:19 AM 66.9 °F - 66.0 °F 97% 29.92 in 5.0 mi SE 3.5 mph - 0.16 in Rain Rain
9:26 AM 66.9 °F - 66.0 °F 97% 29.91 in 6.0 mi Calm Calm - 0.21 in Rain Rain
9:50 AM 66.2 °F - 66.2 °F 100% 29.92 in 10.0 mi SSE 5.8 mph - 0.34 in   Overcast
9:53 AM 66.9 °F - 66.0 °F 97% 29.89 in 10.0 mi SSE 6.9 mph - 0.36 in   Overcast
10:53 AM 68.0 °F - 66.0 °F 93% 29.87 in 10.0 mi SSE 10.4 mph - 0.23 in   Overcast
11:11 AM 69.1 °F - 66.9 °F 93% 29.91 in 10.0 mi South 6.9 mph - N/A   Overcast
11:24 AM 69.1 °F - 68.0 °F 96% 29.92 in 10.0 mi SSW 6.9 mph - N/A   Overcast
11:53 AM 70.0 °F - 69.1 °F 97% 29.89 in 10.0 mi Variable 3.5 mph - N/A   Overcast
12:18 PM 71.1 °F - 69.1 °F 93% 29.91 in 10.0 mi Variable 3.5 mph - N/A   Scattered Clouds
12:30 PM 72.0 °F - 69.1 °F 91% 29.88 in 10.0 mi South 4.6 mph - N/A   Mostly Cloudy
12:51 PM 73.4 °F - 69.8 °F 88% 29.86 in 10.0 mi SE 4.6 mph - N/A   Scattered Clouds
12:53 PM 73.0 °F - 69.1 °F 87% 29.84 in 10.0 mi Calm Calm - N/A   Scattered Clouds
1:53 PM 75.9 °F - 68.0 °F 76% 29.85 in 10.0 mi Calm Calm - N/A   Mostly Cloudy
2:16 PM 75.0 °F - 69.1 °F 82% 29.87 in 10.0 mi Calm Calm - 0.00 in Rain Light Rain
2:53 PM 77.0 °F - 70.0 °F 79% 29.83 in 10.0 mi East 3.5 mph - 0.00 in   Mostly Cloudy
3:05 PM 77.0 °F - 69.1 °F 76% 29.84 in 10.0 mi Variable 3.5 mph - N/A   Mostly Cloudy
3:53 PM 78.1 °F - 70.0 °F 76% 29.79 in 10.0 mi Calm Calm - N/A   Mostly Cloudy
4:12 PM 80.1 °F 83.2 °F 70.0 °F 71% 29.82 in 10.0 mi ENE 4.6 mph - N/A   Scattered Clouds
4:53 PM 80.1 °F 83.6 °F 71.1 °F 74% 29.78 in 10.0 mi ENE 4.6 mph - N/A   Clear
5:53 PM 81.0 °F 84.4 °F 70.0 °F 69% 29.77 in 10.0 mi ESE 5.8 mph - N/A   Clear
6:53 PM 80.1 °F 83.2 °F 70.0 °F 71% 29.77 in 10.0 mi SE 5.8 mph - N/A   Clear
7:53 PM 75.0 °F - 71.1 °F 87% 29.77 in 10.0 mi Calm Calm - N/A   Clear
8:53 PM 71.1 °F - 70.0 °F 96% 29.79 in 10.0 mi Calm Calm - N/A   Clear
9:53 PM 70.0 °F - 69.1 °F 97% 29.81 in 10.0 mi Calm Calm - N/A   Clear
10:53 PM 70.0 °F - 68.0 °F 93% 29.80 in 9.0 mi Calm Calm - N/A   Clear
11:53 PM 71.1 °F - 70.0 °F 96% 29.79 in 10.0 mi Calm Calm - N/A   Mostly Cloudy